GW1975 Weather Reports


Display with metric or nautical units.
time (UTC)temp
F
wind
direction
speed
MPH
gust
MPH
rain 1hr
in
rain 24hr
in
rain mn
in
humidity
%
barometer
mb
20260504140740 70 163 0.0 3.0 0.00 0.00 0.00 51 1009.0
20260504140240 69 260 1.0 2.0 0.00 0.00 0.00 54 1009.0
20260504130736 63 118 2.0 4.0 0.00 0.00 0.00 66 1010.0
20260504130235 63 188 2.0 2.0 0.00 0.00 0.00 67 1010.0
20260504120235 58 160 1.0 3.0 0.00 0.00 0.00 75 1010.0
20260504110236 58 139 1.0 3.0 0.00 0.00 0.00 74 1010.0
20260504100235 58 242 0.0 2.0 0.00 0.00 0.00 73 1009.0
20260504081735 60 110 1.0 2.0 0.00 0.00 0.00 67 1009.0
20260504081235 60 281 2.0 2.0 0.00 0.00 0.00 65 1009.0
20260504080735 60 100 2.0 3.0 0.00 0.00 0.00 65 1009.0
20260504080236 61 101 2.0 3.0 0.00 0.00 0.00 64 1009.0
20260504070236 64 93 2.0 3.0 0.00 0.00 0.00 55 1009.0
20260504060237 66 224 0.0 1.0 0.00 0.00 0.00 52 1009.0
20260504050735 67 264 4.0 4.0 0.00 0.00 0.00 50 1009.0
20260504050235 67 246 0.0 4.0 0.00 0.00 0.00 50 1009.0
20260504045735 67 208 1.0 3.0 0.00 0.00 0.00 50 1009.0
20260504045235 67 283 0.0 5.0 0.00 0.00 0.00 49 1009.0
20260504044735 67 280 5.0 5.0 0.00 0.00 0.00 50 1010.0
20260504044235 67 236 2.0 2.0 0.00 0.00 0.00 49 1010.0
20260504043735 68 263 1.0 4.0 0.00 0.00 0.00 48 1010.0
20260504043235 68 218 0.0 6.0 0.00 0.00 0.00 48 1010.0
20260504042735 68 249 2.0 3.0 0.00 0.00 0.00 48 1010.0
20260504042235 68 261 3.0 3.0 0.00 0.00 0.00 48 1010.0
20260504041735 68 258 0.0 2.0 0.00 0.00 0.00 48 1010.0
20260504041235 68 242 1.0 5.0 0.00 0.00 0.00 47 1010.0
20260504040736 68 230 0.0 2.0 0.00 0.00 0.00 47 1010.0
20260504040236 69 310 1.0 2.0 0.00 0.00 0.00 46 1010.0
20260504035735 69 212 0.0 3.0 0.00 0.00 0.00 46 1010.0
20260504035235 69 221 0.0 4.0 0.00 0.00 0.00 45 1011.0
20260504034735 69 241 2.0 4.0 0.00 0.00 0.00 45 1011.0
20260504034235 69 254 2.0 4.0 0.00 0.00 0.00 45 1011.0
20260504033735 69 234 3.0 5.0 0.00 0.00 0.00 45 1011.0
20260504033235 69 227 1.0 3.0 0.00 0.00 0.00 45 1011.0
20260504032736 69 245 2.0 5.0 0.00 0.00 0.00 45 1011.0
20260504032235 69 254 1.0 3.0 0.00 0.00 0.00 45 1011.0
20260504031736 69 266 1.0 3.0 0.00 0.00 0.00 45 1011.0
20260504031236 69 257 2.0 3.0 0.00 0.00 0.00 45 1011.0
20260504030253 69 217 2.0 3.0 0.00 0.00 0.00 45 1010.0
20260504025735 69 205 0.0 2.0 0.00 0.00 0.00 45 1010.0
20260504025235 69 223 1.0 3.0 0.00 0.00 0.00 45 1010.0
20260504024735 69 246 1.0 2.0 0.00 0.00 0.00 44 1011.0
20260504024236 69 271 2.0 2.0 0.00 0.00 0.00 45 1011.0
20260504023735 69 239 0.0 2.0 0.00 0.00 0.00 44 1010.0
20260504023235 69 209 0.0 2.0 0.00 0.00 0.00 44 1011.0
20260504022735 69 227 0.0 1.0 0.00 0.00 0.00 44 1010.0
20260504022235 69 260 1.0 2.0 0.00 0.00 0.00 44 1010.0
20260504021735 69 228 0.0 3.0 0.00 0.00 0.00 44 1011.0
20260504021235 69 238 1.0 2.0 0.00 0.00 0.00 45 1011.0
20260504020735 69 232 0.0 1.0 0.00 0.00 0.00 44 1010.0
20260504020235 69 297 0.0 1.0 0.00 0.00 0.00 44 1010.0
20260504015735 69 218 0.0 0.0 0.00 0.00 0.00 43 1010.0
20260504015235 70 221 0.0 1.0 0.00 0.00 0.00 43 1010.0
20260504014736 70 224 0.0 2.0 0.00 0.00 0.00 43 1010.0
20260504014235 70 221 0.0 1.0 0.00 0.00 0.00 42 1010.0
20260504013735 70 227 1.0 1.0 0.00 0.00 0.00 42 1010.0
20260504013236 71 224 0.0 1.0 0.00 0.00 0.00 42 1010.0
20260504012735 71 230 1.0 1.0 0.00 0.00 0.00 41 1010.0
20260504012235 71 215 0.0 1.0 0.00 0.00 0.00 41 1010.0
20260504011735 71 236 0.0 1.0 0.00 0.00 0.00 40 1010.0
20260504011236 72 234 0.0 1.0 0.00 0.00 0.00 40 1010.0
20260504010736 72 311 0.0 2.0 0.00 0.00 0.00 39 1010.0
20260504010235 73 236 1.0 1.0 0.00 0.00 0.00 38 1010.0
20260504005735 73 243 0.0 2.0 0.00 0.00 0.00 38 1010.0
20260504005235 73 224 0.0 3.0 0.00 0.00 0.00 37 1010.0
20260504004735 73 259 1.0 2.0 0.00 0.00 0.00 37 1010.0
20260504004235 74 212 0.0 3.0 0.00 0.00 0.00 37 1010.0
20260504003735 74 235 0.0 2.0 0.00 0.00 0.00 36 1010.0
20260504003236 74 242 1.0 2.0 0.00 0.00 0.00 36 1010.0
20260504002735 75 220 1.0 2.0 0.00 0.00 0.00 36 1010.0
20260504002235 75 262 1.0 3.0 0.00 0.00 0.00 35 1010.0
20260504001735 75 237 2.0 5.0 0.00 0.00 0.00 35 1010.0
20260504001235 75 236 2.0 5.0 0.00 0.00 0.00 34 1010.0
20260504000735 76 236 2.0 4.0 0.00 0.00 0.00 34 1010.0
20260504000236 76 273 3.0 6.0 0.00 0.00 0.00 34 1010.0
20260503235735 76 251 2.0 5.0 0.00 0.00 0.00 33 1010.0
20260503235235 77 228 2.0 5.0 0.00 0.00 0.00 33 1010.0
20260503234736 77 231 3.0 4.0 0.00 0.00 0.00 33 1010.0
20260503234235 77 265 2.0 5.0 0.00 0.00 0.00 33 1010.0
20260503233735 77 235 3.0 3.0 0.00 0.00 0.00 33 1011.0
20260503233235 77 271 4.0 5.0 0.00 0.00 0.00 32 1011.0
20260503232735 77 247 1.0 5.0 0.00 0.00 0.00 31 1010.0
20260503232235 78 253 2.0 7.0 0.00 0.00 0.00 31 1011.0
20260503231735 77 230 3.0 4.0 0.00 0.00 0.00 31 1011.0
20260503231235 78 246 3.0 7.0 0.00 0.00 0.00 30 1011.0
20260503230735 78 260 2.0 8.0 0.00 0.00 0.00 29 1011.0
20260503230235 78 239 3.0 9.0 0.00 0.00 0.00 29 1011.0
20260503225735 78 246 4.0 7.0 0.00 0.00 0.00 30 1011.0
20260503225235 78 252 5.0 5.0 0.00 0.00 0.00 29 1011.0
20260503224736 78 278 5.0 9.0 0.00 0.00 0.00 29 1011.0
20260503224236 78 242 3.0 6.0 0.00 0.00 0.00 28 1011.0
20260503223735 78 241 3.0 9.0 0.00 0.00 0.00 29 1011.0
20260503223235 78 267 4.0 6.0 0.00 0.00 0.00 28 1011.0
20260503222736 78 236 4.0 9.0 0.00 0.00 0.00 27 1011.0
20260503222235 78 258 3.0 8.0 0.00 0.00 0.00 28 1012.0
20260503221735 78 245 5.0 9.0 0.00 0.00 0.00 27 1012.0
20260503221235 78 266 7.0 8.0 0.00 0.00 0.00 27 1011.0
20260503220735 78 272 6.0 7.0 0.00 0.00 0.00 26 1012.0
20260503220236 78 284 5.0 7.0 0.00 0.00 0.00 27 1012.0
20260503215735 79 259 4.0 10.0 0.00 0.00 0.00 28 1012.0
20260503215235 78 272 3.0 5.0 0.00 0.00 0.00 27 1012.0
20260503214735 77 269 5.0 6.0 0.00 0.00 0.00 27 1012.0
20260503214236 78 249 4.0 7.0 0.00 0.00 0.00 27 1012.0
20260503213735 78 265 9.0 11.0 0.00 0.00 0.00 27 1012.0
20260503213235 78 231 3.0 7.0 0.00 0.00 0.00 28 1012.0
20260503212735 77 173 2.0 6.0 0.00 0.00 0.00 29 1012.0
20260503212235 78 249 3.0 7.0 0.00 0.00 0.00 28 1012.0
20260503211735 78 253 4.0 5.0 0.00 0.00 0.00 29 1012.0
20260503211236 76 254 1.0 5.0 0.00 0.00 0.00 29 1012.0
20260503210735 76 256 3.0 4.0 0.00 0.00 0.00 29 1012.0
20260503210236 76 217 4.0 5.0 0.00 0.00 0.00 28 1012.0
20260503205735 76 275 6.0 9.0 0.00 0.00 0.00 29 1012.0
20260503205235 75 219 3.0 6.0 0.00 0.00 0.00 28 1012.0
20260503204735 75 238 2.0 6.0 0.00 0.00 0.00 29 1013.0
20260503204235 75 275 2.0 6.0 0.00 0.00 0.00 30 1013.0
20260503203737 77 249 3.0 7.0 0.00 0.00 0.00 30 1013.0
20260503203236 75 156 2.0 5.0 0.00 0.00 0.00 29 1013.0
20260503202735 75 251 4.0 6.0 0.00 0.00 0.00 31 1013.0
20260503202236 75 247 2.0 5.0 0.00 0.00 0.00 31 1013.0
20260503201735 75 247 1.0 3.0 0.00 0.00 0.00 32 1013.0
20260503201235 75 249 2.0 5.0 0.00 0.00 0.00 31 1013.0
20260503200736 74 257 2.0 4.0 0.00 0.00 0.00 32 1014.0
20260503200236 75 283 8.0 10.0 0.00 0.00 0.00 32 1014.0
20260503195735 74 276 4.0 5.0 0.00 0.00 0.00 32 1014.0
20260503195235 74 256 1.0 3.0 0.00 0.00 0.00 32 1014.0
20260503194736 73 206 1.0 4.0 0.00 0.00 0.00 35 1014.0
20260503194235 73 224 0.0 5.0 0.00 0.00 0.00 33 1014.0
20260503193736 73 179 0.0 3.0 0.00 0.00 0.00 34 1014.0
20260503193235 72 144 2.0 4.0 0.00 0.00 0.00 34 1014.0
20260503192735 72 293 1.0 5.0 0.00 0.00 0.00 33 1015.0
20260503192235 72 242 1.0 6.0 0.00 0.00 0.00 34 1015.0
20260503191735 72 298 3.0 3.0 0.00 0.00 0.00 34 1015.0
20260503191235 72 256 3.0 7.0 0.00 0.00 0.00 34 1015.0
20260503190735 71 93 2.0 3.0 0.00 0.00 0.00 34 1015.0
20260503190235 71 192 3.0 4.0 0.00 0.00 0.00 34 1015.0
20260503185736 71 208 1.0 7.0 0.00 0.00 0.00 32 1015.0
20260503185235 70 253 3.0 6.0 0.00 0.00 0.00 34 1015.0
20260503184735 70 244 2.0 3.0 0.00 0.00 0.00 35 1016.0
20260503184238 69 128 2.0 5.0 0.00 0.00 0.00 34 1016.0
20260503183735 69 239 0.0 3.0 0.00 0.00 0.00 35 1016.0
20260503183235 69 238 3.0 5.0 0.00 0.00 0.00 34 1016.0
20260503182735 69 223 3.0 5.0 0.00 0.00 0.00 34 1016.0
20260503182235 68 216 3.0 3.0 0.00 0.00 0.00 36 1016.0
20260503181736 68 251 3.0 5.0 0.00 0.00 0.00 36 1016.0
20260503181236 68 179 1.0 4.0 0.00 0.00 0.00 34 1017.0
20260503180735 68 226 3.0 5.0 0.00 0.00 0.00 34 1017.0
20260503180235 68 216 3.0 7.0 0.00 0.00 0.00 34 1017.0
20260503175735 68 247 2.0 5.0 0.00 0.00 0.00 37 1017.0
20260503175235 67 243 3.0 4.0 0.00 0.00 0.00 34 1017.0
20260503174736 67 188 1.0 3.0 0.00 0.00 0.00 36 1018.0
20260503174235 67 180 2.0 5.0 0.00 0.00 0.00 37 1018.0
20260503173735 67 331 0.0 7.0 0.00 0.00 0.00 37 1018.0
20260503173235 67 262 5.0 7.0 0.00 0.00 0.00 36 1018.0
20260503172735 66 202 1.0 3.0 0.00 0.00 0.00 38 1019.0
20260503172235 66 213 2.0 3.0 0.00 0.00 0.00 38 1019.0
20260503171735 66 235 4.0 4.0 0.00 0.00 0.00 39 1019.0
20260503171235 65 230 1.0 7.0 0.00 0.00 0.00 37 1019.0
20260503170736 65 228 2.0 5.0 0.00 0.00 0.00 39 1019.0
20260503170236 64 176 2.0 6.0 0.00 0.00 0.00 38 1019.0
20260503150736 62 205 0.0 5.0 0.00 0.00 0.00 46 1020.0
20260503150237 59 140 2.0 3.0 0.00 0.00 0.00 47 1021.0